NOAA NWS Hourly Roundups by Site

Regional Weather Roundup for Omaha, NE

To Select Another Site Choose from List

Select Site:  

000
ASUS43 KOAX 190203
RWRNE

WEATHER ROUNDUP FOR NEBRASKA
NATIONAL WEATHER SERVICE OMAHA NE
900 PM CDT SAT SEP 18 2021

NOTES: SATELLITE DATA IS BEING USED TO AUGMENT CLOUD COVER ABOVE
       12000 FEET.
       "FAIR" INDICATES FEW OR NO CLOUDS BELOW 12,000 FEET WITH NO
       SIGNIFICANT WEATHER AND/OR OBSTRUCTIONS TO VISIBILITY.


NEZ001>004-019>022-054>056-190300-
NEBRASKA PANHANDLE

CITY           SKY/WX    TMP DP  RH WIND       PRES   REMARKS
SCOTTSBLUFF    PTCLDY    73  42  32 E9        29.90R
ALLIANCE       CLEAR     71  54  54 SE12      29.91R
CHADRON        CLEAR     83  46  27 S22G32    29.82R
GORDON         CLEAR     76  53  43 S12       29.87S
KIMBALL        PTCLDY    69  30  23 S7        29.99S
SIDNEY         CLEAR     76  48  37 S14       29.94S
$$

NEZ057>060-069>072-079>082-190300-
SOUTHWEST NEBRASKA

CITY           SKY/WX    TMP DP  RH WIND       PRES   REMARKS
NORTH PLATTE   CLEAR     81  58  45 S12G22    29.94R
IMPERIAL       CLEAR     78  56  46 S12       29.95R
LEXINGTON      CLEAR     75  63  65 SE8       29.98R
MCCOOK         CLEAR     81  57  43 S15G25    29.96S
OGALLALA       CLEAR     77  55  45 S9        29.93S
$$

NEZ005>010-023>029-035>040-094-190300-
NORTH CENTRAL NEBRASKA

CITY           SKY/WX    TMP DP  RH WIND       PRES   REMARKS
VALENTINE      CLEAR     79  59  50 S12       29.87S
AINSWORTH      CLEAR     75  61  60 S13       29.91R
BROKEN BOW     CLEAR     77  61  57 SE12      29.96S
O`NEILL        CLEAR     76  63  63 S14       29.93R
ORD            CLEAR     77  64  64 SE13      29.94S
THEDFORD       CLEAR     77  59  53 S14       29.94R
$$

NEZ041-046>049-061>064-073>077-083>087-190300-
SOUTH CENTRAL NEBRASKA

CITY           SKY/WX    TMP DP  RH WIND       PRES   REMARKS
GRAND ISLAND   CLEAR     77  61  57 S10       30.00R
AURORA         CLEAR     77  61  58 S12       30.01R
HASTINGS       CLEAR     77  60  55 S10G21    30.02R
HEBRON         CLEAR     74  60  61 S5        30.02R
KEARNEY        CLEAR     76  61  59 S14       30.00R
YORK           CLEAR     75  63  64 S9        30.01R
$$

NEZ011>018-030>034-042>045-190300-
NORTHEAST NEBRASKA

CITY           SKY/WX    TMP DP  RH WIND       PRES   REMARKS
NORFOLK        CLEAR     77  62  59 SE9       29.97R
ALBION         CLEAR     74  66  75 SE7       29.98R
BLAIR          CLEAR     79  67  65 S9G16     30.01R
COLUMBUS       CLEAR     74  66  76 SE8       30.00R
FREMONT        CLEAR     79  66  65 SE7       30.00S
TEKAMAH        CLEAR     74  66  76 SE8       29.98R
WAYNE          CLEAR     76  66  70 S10       29.96S
$$

NEZ050>053-065>068-078-088>093-190300-
SOUTHEAST NEBRASKA

CITY           SKY/WX    TMP DP  RH WIND       PRES   REMARKS
LINCOLN        CLEAR     74  62  66 S10       30.01R
OMAHA EPPLEY   CLEAR     81  67  62 S14       30.00S
BEATRICE       CLEAR     77  63  61 S7        30.03R
FALLS CITY     CLEAR     74  67  78 SE7       30.04R
NEBRASKA CITY  CLEAR     74  66  74 S7        30.04R
PLATTSMOUTH    CLEAR     78  67  70 SE8       30.03R
$$

NEZ044-045-051>053-067-190300-
OMAHA AREA

CITY           SKY/WX    TMP DP  RH WIND       PRES   REMARKS
OMAHA EPPLEY   CLEAR     81  67  62 S14       30.00S
BLAIR          CLEAR     79  67  65 S9G16     30.01R
FREMONT        CLEAR     79  66  65 SE7       30.00S
MILLARD        CLEAR     79  67  67 SE7       30.01R
OFFUTT AFB     CLEAR     77  66  68 SE8       30.03R
PLATTSMOUTH    CLEAR     78  67  70 SE8       30.03R
WAHOO          CLEAR     73  66  80 S7        30.00R
$$


 

View Past Reports for Omaha, NE.

Products Courtesy of NOAA-NWS
NWS Information Parsing Script by Ken True at Saratoga Weather - Script by SE Lincoln Weather.